Dean International
Flight School

Career Spotlight

Mika

Mika

Congratulations to Mika from Khazakstan. She recently sent us this photo of her flying an Airbus airliner.

More...
Mika's Success Story
close

Congratulations to Mika from Khazakstan. She recently sent us this photo of her flying an Airbus airliner.

Mario

Mario

My dreams could not have been realized if I wouldn't have been part of the Dean International family.

More...
Mario's Success Story
close

"My dreams could not have been realized if I wouldn't have been part of the Dean International family. Thank you Robert, thanks to all my co-workers, and thanks to all of my students!"

Fernando

Fernando

I am now working as a First Officer at TACA and am enjoying every moment of it.

More...
Fernando's Success Story
close

"Will never forget my time of flight training at Dean International. I am now working as a First Officer at TACA and am enjoying every moment of it."

Alvaro

Alvaro

Because of the flight time I was able to built while instructing, I got the experience needed to apply to an airline in Colombia.

More...
Alvaro's Success Story
close

Dean alumnus Alvaro Londoño currently flies with Tampa Cargo. He says of his experience at Dean: "I want to take this opportunity to thank you for giving me the chance to build my experience and expand my knowledge in Dean International. Because of the flight time I was able to built flight instructing, I got the experience needed to apply to an airline in Colombia."

Ralph

Ralph

Every Aruban student of Dean International has made it into Tiara Air Aruba, that is very nice.

More...
Ralph's Success Story
close

"Next to me is my Co-Pilot, Elison. This picture was taken on our first flight together, which was almost exactly 5 years after I finished at Dean International. [...] Every Aruban student of Dean International has made it into Tiara Air Aruba. [...] The future looks bright here in Aruba."

Rohaan

Rohaan

The [..] staff will all work diligently to help you finish your certificates as safely and efficiently as possible.

More...
Rohaan's Success Story
close

After receiving very hard times from other flight schools [...], I came to Dean International where Robert Dean personally sat down with me and gave me a financial and chronological look into how much remained to finish my private pilot certificate. Through his hard efforts as an instructor and mentor, I was able to finish my private pilot certificate within one week.

Welcome to Dean International

In over two decades, Dean International has educated over 7,000 pilots from all over the world, including over 1,000 students from India alone. By offering a great training experience, a friendly service staff, an ample variety of aircraft, and by improving constantly, we have become one of the largest, most prestigious FAA 141-approved flight schools in North America. Located in Miami, Florida, USA, our flight school offers an ideal location for year-round, "learn to fly" weather, flight training. Dean International is not only well-equipped to provide services to professional trainees but also caters to General Aviation renters. Visit or contact our headquarters at Kendall-Tamiami Executive Airport located in Miami, FL today to learn more about us, or simply read more about our programs if you are an international student interested in joining our school.

Local Airport Information
TAF FOR KTMB (Issued: Wed, May 25th 2016 6:39 AM UTC)
TAF KTMB 250537Z 2506/2606 06008KT P6SM SCT030 SCT050
      FM251400 08014G25KT P6SM SCT030
      FM251700 07019G29KT P6SM SCT030 SCT100
      FM260300 06007KT P6SM FEW030 SCT250
     
METAR FOR KTMB (Issued: Wed, May 25th 2016 8:53 AM UTC):
KTMB 250853Z AUTO 06006KT 10SM BKN035 25/21 A3010 RMK AO2 SLP192 T02500206 55002 TSNO

This weather information is provided by the National Weather Service.
It is automatically refreshed every three minutes.
TAF FOR KHST (Issued: Wed, May 25th 2016 8:18 AM UTC)
TAF KHST 250800Z 2508/2614 08009KT 9999 SCT035 BKN250 QNH3005INS
      BECMG 2515/2516 07012G18KT 9000 -SHRA FEW030 BKN060 QNH3010INS
      TEMPO 2518/2521 08015G25KT 6000 -TSRA BKN030CB
      BECMG 2521/2522 06012KT 9999 NSW FEW035 QNH3004INS TX30/2520Z TN23/2608Z
     
METAR FOR KHST (Issued: Wed, May 25th 2016 7:58 AM UTC):
KHST 250758Z AUTO 09006KT 10SM CLR 26/21 A3009 RMK AO2 SLP193 T02620207

This weather information is provided by the National Weather Service.
It is automatically refreshed every three minutes.
TAF FOR KOPF (Issued: Wed, May 25th 2016 6:39 AM UTC)
TAF KOPF 250537Z 2506/2606 10011KT P6SM FEW030 SCT060
      FM251400 08013KT P6SM SCT035
      FM251700 07018G28KT P6SM SCT030 SCT100
      FM260200 06009KT P6SM FEW030 SCT250
     
METAR FOR KOPF (Issued: Wed, May 25th 2016 8:53 AM UTC):
KOPF 250853Z AUTO 07007KT 10SM CLR 25/19 A3011 RMK AO2 SLP198 T02500194 53001 $

This weather information is provided by the National Weather Service.
It is automatically refreshed every three minutes.
TAF FOR KMIA (Issued: Wed, May 25th 2016 6:42 AM UTC)
TAF KMIA 250537Z 2506/2606 09010KT P6SM FEW030 SCT100
      FM251400 07012KT P6SM SCT035
      FM251700 07017G27KT P6SM SCT030 SCT100
      FM260300 06008KT P6SM FEW030 SCT250
     
METAR FOR KMIA (Issued: Wed, May 25th 2016 8:53 AM UTC):
KMIA 250853Z 07006KT 10SM SCT033 26/21 A3011 RMK AO2 SLP195 T02610206 53001

This weather information is provided by the National Weather Service.
It is automatically refreshed every three minutes.
Design by Ariel Llizo
© Dean International Inc. 2012